NJE294D LGTS-LCLK

Flight info

Callsign NJE294D
Flight time 1h 29m
Altitude 37000
Route LEKPO UL617 BAMOS DCT MES UL609 RDS UM601 EVENO DCT DASNI DCT BONEK
Aircraft CL60/M-SBDE1E2E3FGHIJ1J4J5J7M3RWXYZ/LB1V1D1

Departure

Time 2026-04-28 12:42
Airport Thessaloniki Macedonia International Airport (LGTS)

Arrival

Time 2026-04-28 14:11
Airport Larnaca International Airport (LCLK)
Time Latitude Longitude Altitude Speed Heading
2026-04-28 12:20 40.52129 22.98266 16 ft 0 kts 14°
2026-04-28 12:39 40.52132 22.98269 16 ft 2 kts 58°
2026-04-28 12:39 40.52111 22.98274 16 ft 6 kts 193°
2026-04-28 12:40 40.52061 22.98292 16 ft 9 kts 102°
2026-04-28 12:40 40.52011 22.98332 16 ft 11 kts 195°
2026-04-28 12:40 40.51926 22.98311 16 ft 12 kts 165°
2026-04-28 12:40 40.51893 22.98404 17 ft 13 kts 104°
2026-04-28 12:41 40.51869 22.98531 17 ft 15 kts 104°
2026-04-28 12:41 40.51841 22.98675 18 ft 12 kts 109°
2026-04-28 12:41 40.51778 22.98698 18 ft 11 kts 194°
2026-04-28 12:41 40.51695 22.98671 18 ft 11 kts 205°
2026-04-28 12:42 40.51696 22.98558 18 ft 34 kts 284°
2026-04-28 12:42 40.51837 22.97809 14 ft 134 kts 284°
2026-04-28 12:42 40.52122 22.96376 468 ft 178 kts 283°
2026-04-28 12:42 40.52436 22.94828 1388 ft 171 kts 284°
2026-04-28 12:43 40.52770 22.93191 1960 ft 202 kts 284°
2026-04-28 12:43 40.53147 22.91340 2362 ft 212 kts 284°
2026-04-28 12:43 40.53531 22.89458 2780 ft 211 kts 284°
2026-04-28 12:43 40.53911 22.87592 3222 ft 210 kts 285°
2026-04-28 12:44 40.54218 22.85743 3742 ft 212 kts 272°
2026-04-28 12:44 40.53721 22.83761 4291 ft 251 kts 233°
2026-04-28 12:44 40.52314 22.82250 4877 ft 274 kts 204°
2026-04-28 12:44 40.50424 22.81930 5569 ft 279 kts 169°
2026-04-28 12:45 40.48686 22.83066 6326 ft 283 kts 136°
2026-04-28 12:45 40.47322 22.84960 7057 ft 289 kts 130°
2026-04-28 12:45 40.45970 22.86926 7786 ft 291 kts 130°
2026-04-28 12:45 40.44589 22.88922 8530 ft 293 kts 131°
2026-04-28 12:46 40.43216 22.90892 9270 ft 296 kts 131°
2026-04-28 12:46 40.41779 22.92922 9997 ft 300 kts 132°
2026-04-28 12:46 40.40334 22.94940 10735 ft 314 kts 132°
2026-04-28 12:46 40.38781 22.97105 11459 ft 339 kts 132°
2026-04-28 12:47 40.37097 22.99447 12202 ft 356 kts 132°
2026-04-28 12:47 40.35380 23.01826 12897 ft 362 kts 133°
2026-04-28 12:47 40.33633 23.04242 13643 ft 364 kts 133°
2026-04-28 12:47 40.31266 23.07510 14628 ft 370 kts 133°
2026-04-28 12:48 40.30086 23.09137 15127 ft 372 kts 133°
2026-04-28 12:48 40.28271 23.11637 15871 ft 377 kts 133°
2026-04-28 12:48 40.26448 23.14144 16584 ft 380 kts 133°
2026-04-28 12:48 40.24586 23.16703 17337 ft 384 kts 133°
2026-04-28 12:49 40.22733 23.19246 18069 ft 389 kts 133°
2026-04-28 12:49 40.20849 23.21829 18807 ft 394 kts 133°
2026-04-28 12:49 40.18925 23.24464 19545 ft 399 kts 133°
2026-04-28 12:49 40.16987 23.27115 20276 ft 404 kts 133°
2026-04-28 12:50 40.15041 23.29774 21013 ft 408 kts 133°
2026-04-28 12:50 40.13061 23.32478 21748 ft 413 kts 132°
2026-04-28 12:50 40.11047 23.35225 22491 ft 418 kts 132°
2026-04-28 12:50 40.08992 23.38024 23238 ft 423 kts 132°
2026-04-28 12:51 40.06939 23.40818 23972 ft 428 kts 132°
2026-04-28 12:51 40.04865 23.43638 24710 ft 432 kts 132°
2026-04-28 12:51 40.02740 23.46525 25457 ft 435 kts 132°
2026-04-28 12:51 40.00630 23.49388 26080 ft 441 kts 132°
2026-04-28 12:52 39.98459 23.52331 26666 ft 446 kts 132°
2026-04-28 12:52 39.96293 23.55264 27208 ft 452 kts 132°
2026-04-28 12:52 39.94083 23.58253 27753 ft 456 kts 132°
2026-04-28 12:52 39.91867 23.61247 28306 ft 459 kts 132°
2026-04-28 12:53 39.89627 23.64272 28815 ft 463 kts 132°
2026-04-28 12:53 39.87323 23.67378 29308 ft 466 kts 133°
2026-04-28 12:53 39.85054 23.70435 29763 ft 470 kts 133°
2026-04-28 12:53 39.82761 23.73521 30170 ft 474 kts 133°
2026-04-28 12:54 39.80452 23.76626 30568 ft 478 kts 133°
2026-04-28 12:54 39.78089 23.79799 30989 ft 480 kts 133°
2026-04-28 12:54 39.75765 23.82917 31382 ft 482 kts 133°
2026-04-28 12:54 39.73389 23.86100 31741 ft 485 kts 133°
2026-04-28 12:55 39.70993 23.89308 32043 ft 488 kts 133°
2026-04-28 12:55 39.68570 23.92548 32341 ft 490 kts 133°
2026-04-28 12:55 39.66151 23.95779 32607 ft 492 kts 133°
2026-04-28 12:55 39.63736 23.99001 32892 ft 494 kts 133°
2026-04-28 12:56 39.61286 24.02267 33150 ft 495 kts 133°
2026-04-28 12:56 39.58839 24.05525 33359 ft 497 kts 133°
2026-04-28 12:56 39.56380 24.08795 33587 ft 499 kts 133°
2026-04-28 12:56 39.53925 24.12056 33794 ft 500 kts 133°
2026-04-28 12:57 39.51418 24.15383 34094 ft 499 kts 133°
2026-04-28 12:57 39.48963 24.18638 34428 ft 497 kts 133°
2026-04-28 12:57 39.46499 24.21901 34742 ft 496 kts 133°
2026-04-28 12:57 39.44057 24.25131 34968 ft 496 kts 133°
2026-04-28 12:58 39.41598 24.28381 35192 ft 496 kts 133°
2026-04-28 12:58 39.39148 24.31615 35397 ft 496 kts 133°
2026-04-28 12:58 39.36710 24.34830 35619 ft 496 kts 133°
2026-04-28 12:58 39.34295 24.38011 35842 ft 495 kts 133°
2026-04-28 12:59 39.31848 24.41231 36054 ft 495 kts 133°
2026-04-28 12:59 39.29416 24.44428 36258 ft 495 kts 133°
2026-04-28 12:59 39.26941 24.47677 36494 ft 495 kts 133°
2026-04-28 12:59 39.24509 24.50868 36754 ft 494 kts 133°
2026-04-28 13:00 39.22041 24.54102 37032 ft 494 kts 133°
2026-04-28 13:00 39.17140 24.60515 37089 ft 499 kts 133°
2026-04-28 13:01 39.12238 24.66914 37095 ft 501 kts 134°
2026-04-28 13:01 39.07348 24.73285 37094 ft 501 kts 134°
2026-04-28 13:02 39.02412 24.79702 37092 ft 501 kts 134°
2026-04-28 13:02 38.97441 24.86151 37097 ft 502 kts 134°
2026-04-28 13:03 38.92481 24.92571 37091 ft 502 kts 134°
2026-04-28 13:03 38.87541 24.98953 37098 ft 501 kts 134°
2026-04-28 13:04 38.82582 25.05346 37093 ft 501 kts 134°
2026-04-28 13:04 38.77620 25.11729 37087 ft 501 kts 134°
2026-04-28 13:05 38.72628 25.18138 37092 ft 501 kts 134°
2026-04-28 13:05 38.67674 25.24485 37082 ft 502 kts 134°
2026-04-28 13:06 38.62668 25.30884 37070 ft 502 kts 134°
2026-04-28 13:06 38.57698 25.37225 37069 ft 503 kts 134°
2026-04-28 13:07 38.52699 25.43589 37065 ft 503 kts 134°
2026-04-28 13:07 38.47737 25.49893 37057 ft 502 kts 134°
2026-04-28 13:08 38.42719 25.56255 37050 ft 502 kts 135°
2026-04-28 13:08 38.37735 25.62562 37051 ft 502 kts 135°
2026-04-28 13:09 38.32742 25.68867 37048 ft 502 kts 135°
2026-04-28 13:09 38.27734 25.75176 37048 ft 502 kts 135°
2026-04-28 13:10 38.22657 25.81561 37038 ft 502 kts 135°
2026-04-28 13:10 38.17623 25.87877 37043 ft 502 kts 135°
2026-04-28 13:11 38.12615 25.94150 37040 ft 503 kts 135°
2026-04-28 13:11 38.07606 26.00410 37032 ft 503 kts 135°
2026-04-28 13:12 38.02570 26.06690 37026 ft 503 kts 135°
2026-04-28 13:12 37.97498 26.13003 37031 ft 502 kts 135°
2026-04-28 13:13 37.92445 26.19281 37018 ft 502 kts 135°
2026-04-28 13:13 37.87405 26.25527 37000 ft 502 kts 136°
2026-04-28 13:14 37.82388 26.31735 37010 ft 501 kts 136°
2026-04-28 13:14 37.77316 26.37997 37001 ft 502 kts 136°
2026-04-28 13:15 37.72237 26.44255 37011 ft 502 kts 136°
2026-04-28 13:15 37.67168 26.50489 37006 ft 502 kts 136°
2026-04-28 13:16 37.62046 26.56774 37000 ft 503 kts 136°
2026-04-28 13:16 37.57004 26.62949 36991 ft 503 kts 136°
2026-04-28 13:17 37.51948 26.69129 36989 ft 502 kts 137°
2026-04-28 13:17 37.46849 26.75348 36972 ft 502 kts 137°
2026-04-28 13:18 37.41779 26.81521 36953 ft 502 kts 137°
2026-04-28 13:18 37.36663 26.87688 36968 ft 501 kts 137°
2026-04-28 13:19 37.31661 26.94023 36974 ft 501 kts 130°
2026-04-28 13:19 37.27781 27.01352 36968 ft 502 kts 117°
2026-04-28 13:20 37.24929 27.09489 36969 ft 503 kts 112°
2026-04-28 13:20 37.22133 27.17735 36973 ft 504 kts 113°
2026-04-28 13:21 37.19358 27.25896 36958 ft 503 kts 113°
2026-04-28 13:21 37.16563 27.34095 36947 ft 504 kts 113°
2026-04-28 13:22 37.13752 27.42319 36945 ft 503 kts 113°
2026-04-28 13:22 37.10950 27.50494 36949 ft 503 kts 113°
2026-04-28 13:23 37.08156 27.58626 36950 ft 503 kts 113°
2026-04-28 13:23 37.05342 27.66795 36944 ft 503 kts 114°
2026-04-28 13:24 37.02560 27.74847 36939 ft 504 kts 114°
2026-04-28 13:24 36.99745 27.82975 36934 ft 503 kts 114°
2026-04-28 13:25 36.96933 27.91072 36926 ft 503 kts 114°
2026-04-28 13:25 36.94118 27.99155 36926 ft 503 kts 114°
2026-04-28 13:26 36.91305 28.07210 36925 ft 504 kts 114°
2026-04-28 13:26 36.88489 28.15252 36927 ft 503 kts 114°
2026-04-28 13:27 36.85637 28.23377 36932 ft 503 kts 114°
2026-04-28 13:27 36.82779 28.31497 36932 ft 503 kts 114°
2026-04-28 13:28 36.79917 28.39608 36952 ft 503 kts 114°
2026-04-28 13:28 36.77066 28.47662 36921 ft 504 kts 114°
2026-04-28 13:29 36.74197 28.55750 36918 ft 503 kts 114°
2026-04-28 13:29 36.71330 28.63809 36944 ft 503 kts 114°
2026-04-28 13:30 36.68461 28.71852 36951 ft 503 kts 115°
2026-04-28 13:30 36.65570 28.79935 36932 ft 503 kts 115°
2026-04-28 13:31 36.61239 28.92008 36938 ft 503 kts 115°
2026-04-28 13:31 36.58359 29.00008 36927 ft 503 kts 115°
2026-04-28 13:32 36.55431 29.08122 36945 ft 503 kts 115°
2026-04-28 13:32 36.52536 29.16121 36951 ft 503 kts 115°
2026-04-28 13:33 36.49606 29.24197 36961 ft 503 kts 115°
2026-04-28 13:33 36.46701 29.32181 36999 ft 503 kts 115°
2026-04-28 13:34 36.43771 29.40214 37042 ft 504 kts 115°
2026-04-28 13:34 36.40827 29.48268 37050 ft 504 kts 115°
2026-04-28 13:35 36.37880 29.56306 37049 ft 505 kts 115°
2026-04-28 13:35 36.34915 29.64371 37036 ft 504 kts 115°
2026-04-28 13:36 36.31979 29.72339 37008 ft 504 kts 115°
2026-04-28 13:36 36.29047 29.80275 36977 ft 504 kts 115°
2026-04-28 13:37 36.26067 29.88323 36942 ft 504 kts 115°
2026-04-28 13:37 36.23112 29.96280 36907 ft 504 kts 115°
2026-04-28 13:38 36.20108 30.04348 36908 ft 503 kts 115°
2026-04-28 13:38 36.17118 30.12360 36910 ft 504 kts 115°
2026-04-28 13:39 36.14134 30.20334 36910 ft 504 kts 115°
2026-04-28 13:39 36.11186 30.28194 36912 ft 503 kts 115°
2026-04-28 13:40 36.08190 30.36158 36912 ft 503 kts 115°
2026-04-28 13:40 36.05213 30.44055 36908 ft 503 kts 115°
2026-04-28 13:41 36.02212 30.51995 36906 ft 503 kts 115°
2026-04-28 13:41 35.99203 30.59936 36925 ft 503 kts 115°
2026-04-28 13:42 35.96191 30.67864 36932 ft 503 kts 116°
2026-04-28 13:42 35.93159 30.75826 36934 ft 503 kts 116°
2026-04-28 13:43 35.90160 30.83683 36929 ft 504 kts 116°
2026-04-28 13:43 35.87127 30.91607 36933 ft 504 kts 116°
2026-04-28 13:44 35.84102 30.99493 36928 ft 504 kts 116°
2026-04-28 13:44 35.81041 31.07450 36925 ft 504 kts 116°
2026-04-28 13:45 35.77993 31.15356 36930 ft 505 kts 116°
2026-04-28 13:45 35.74918 31.23311 36929 ft 504 kts 116°
2026-04-28 13:46 35.71874 31.31169 36924 ft 504 kts 116°
2026-04-28 13:46 35.68823 31.39022 36926 ft 504 kts 116°
2026-04-28 13:47 35.65756 31.46900 36928 ft 505 kts 116°
2026-04-28 13:47 35.62659 31.54833 36928 ft 505 kts 116°
2026-04-28 13:48 35.59597 31.62659 36927 ft 505 kts 116°
2026-04-28 13:48 35.56540 31.70453 36927 ft 505 kts 117°
2026-04-28 13:49 35.53450 31.78312 36929 ft 505 kts 117°
2026-04-28 13:49 35.50389 31.86078 36740 ft 500 kts 117°
2026-04-28 13:50 35.48877 31.89911 36198 ft 497 kts 117°
2026-04-28 13:50 35.47364 31.93737 35681 ft 492 kts 117°
2026-04-28 13:50 35.45867 31.97521 35179 ft 488 kts 117°
2026-04-28 13:50 35.44381 32.01271 34600 ft 486 kts 116°
2026-04-28 13:51 35.42914 32.04970 33832 ft 483 kts 116°
2026-04-28 13:51 35.41439 32.08683 33069 ft 478 kts 116°
2026-04-28 13:51 35.39984 32.12344 32384 ft 471 kts 116°
2026-04-28 13:51 35.38544 32.15961 31739 ft 465 kts 116°
2026-04-28 13:52 35.37122 32.19530 31127 ft 458 kts 116°
2026-04-28 13:52 35.35716 32.23053 30508 ft 452 kts 116°
2026-04-28 13:52 35.34329 32.26527 29902 ft 446 kts 116°
2026-04-28 13:52 35.32971 32.29917 29316 ft 441 kts 116°
2026-04-28 13:53 35.31599 32.33336 28717 ft 437 kts 116°
2026-04-28 13:53 35.30277 32.36629 28148 ft 433 kts 116°
2026-04-28 13:53 35.28942 32.39957 27570 ft 430 kts 116°
2026-04-28 13:53 35.27615 32.43263 26996 ft 427 kts 116°
2026-04-28 13:54 35.26297 32.46546 26426 ft 424 kts 116°
2026-04-28 13:54 35.25002 32.49766 25865 ft 420 kts 115°
2026-04-28 13:54 35.23692 32.53023 25300 ft 417 kts 115°
2026-04-28 13:54 35.22410 32.56204 24753 ft 413 kts 115°
2026-04-28 13:55 35.21120 32.59405 24197 ft 410 kts 115°
2026-04-28 13:55 35.19870 32.62502 23654 ft 406 kts 115°
2026-04-28 13:55 35.18597 32.65651 23117 ft 403 kts 116°
2026-04-28 13:55 35.17367 32.68693 22594 ft 399 kts 116°
2026-04-28 13:56 35.16125 32.71761 22069 ft 396 kts 116°
2026-04-28 13:56 35.14894 32.74797 21550 ft 393 kts 116°
2026-04-28 13:56 35.13685 32.77781 21026 ft 390 kts 116°
2026-04-28 13:56 35.12474 32.80763 20516 ft 387 kts 116°
2026-04-28 13:57 35.11274 32.83716 20001 ft 383 kts 116°
2026-04-28 13:57 35.10090 32.86628 19486 ft 381 kts 116°
2026-04-28 13:57 35.08903 32.89543 18989 ft 377 kts 116°
2026-04-28 13:57 35.07734 32.92419 18479 ft 374 kts 115°
2026-04-28 13:58 35.06755 32.95346 17981 ft 366 kts 108°
2026-04-28 13:58 35.05922 32.98264 17500 ft 359 kts 108°
2026-04-28 13:58 35.05099 33.01138 17021 ft 353 kts 108°
2026-04-28 13:58 35.04290 33.03956 16559 ft 347 kts 108°
2026-04-28 13:59 35.03486 33.06755 16089 ft 345 kts 108°
2026-04-28 13:59 35.02684 33.09546 15624 ft 345 kts 108°
2026-04-28 13:59 35.01886 33.12317 15158 ft 344 kts 109°
2026-04-28 13:59 35.01082 33.15110 14703 ft 342 kts 109°
2026-04-28 14:00 35.00291 33.17852 14238 ft 340 kts 109°
2026-04-28 14:00 34.99545 33.20434 13806 ft 338 kts 109°
2026-04-28 14:00 34.98766 33.23131 13354 ft 335 kts 109°
2026-04-28 14:00 34.97986 33.25829 12906 ft 334 kts 109°
2026-04-28 14:01 34.97198 33.28551 12446 ft 332 kts 108°
2026-04-28 14:01 34.96434 33.31189 12004 ft 331 kts 109°
2026-04-28 14:01 34.95664 33.33840 11566 ft 328 kts 108°
2026-04-28 14:01 34.94886 33.36515 11110 ft 327 kts 108°
2026-04-28 14:02 34.94119 33.39150 10671 ft 325 kts 108°
2026-04-28 14:02 34.93366 33.41737 10355 ft 319 kts 108°
2026-04-28 14:02 34.92622 33.44287 9888 ft 316 kts 108°
2026-04-28 14:02 34.91880 33.46831 9474 ft 311 kts 108°
2026-04-28 14:03 34.91158 33.49307 9049 ft 307 kts 108°
2026-04-28 14:03 34.90440 33.51769 8639 ft 303 kts 108°
2026-04-28 14:03 34.89735 33.54179 8241 ft 299 kts 109°
2026-04-28 14:03 34.89045 33.56540 7808 ft 292 kts 109°
2026-04-28 14:04 34.88370 33.58844 7448 ft 279 kts 109°
2026-04-28 14:04 34.87754 33.61083 7086 ft 269 kts 101°
2026-04-28 14:04 34.87691 33.63285 6728 ft 257 kts 77°
2026-04-28 14:04 34.88244 33.65322 6394 ft 243 kts 65°
2026-04-28 14:05 34.88889 33.67159 6082 ft 227 kts 65°
2026-04-28 14:05 34.89496 33.68906 5786 ft 217 kts 65°
2026-04-28 14:05 34.90078 33.70582 5481 ft 209 kts 65°
2026-04-28 14:05 34.90641 33.72202 5196 ft 200 kts 64°
2026-04-28 14:06 34.91186 33.73771 4931 ft 202 kts 65°
2026-04-28 14:06 34.91765 33.75428 4641 ft 218 kts 65°
2026-04-28 14:06 34.92362 33.77145 4353 ft 218 kts 65°
2026-04-28 14:06 34.93026 33.78817 4053 ft 214 kts 52°
2026-04-28 14:07 34.94243 33.79755 3729 ft 204 kts
2026-04-28 14:07 34.95563 33.79368 3413 ft 196 kts 322°
2026-04-28 14:07 34.96470 33.78112 3059 ft 197 kts 301°
2026-04-28 14:07 34.96937 33.76537 2632 ft 200 kts 280°
2026-04-28 14:08 34.96877 33.74863 2261 ft 194 kts 258°
2026-04-28 14:08 34.96292 33.73486 2059 ft 175 kts 235°
2026-04-28 14:08 34.95482 33.72371 1838 ft 174 kts 230°
2026-04-28 14:08 34.94643 33.71310 1633 ft 172 kts 229°
2026-04-28 14:09 34.93798 33.70265 1420 ft 171 kts 228°
2026-04-28 14:09 34.92962 33.69239 1224 ft 167 kts 227°
2026-04-28 14:09 34.92205 33.68316 1066 ft 138 kts 227°
2026-04-28 14:09 34.91604 33.67583 905 ft 133 kts 227°
2026-04-28 14:10 34.90960 33.66792 723 ft 128 kts 226°
2026-04-28 14:10 34.90320 33.66003 581 ft 129 kts 226°
2026-04-28 14:10 34.89683 33.65221 434 ft 128 kts 225°
2026-04-28 14:10 34.89060 33.64463 303 ft 127 kts 225°
2026-04-28 14:11 34.88429 33.63689 119 ft 126 kts 223°
2026-04-28 14:11 34.87823 33.62945 20 ft 111 kts 225°
2026-04-28 14:11 34.87363 33.62379 14 ft 72 kts 225°
2026-04-28 14:11 34.87105 33.62062 12 ft 32 kts 225°
2026-04-28 14:12 34.86979 33.61836 13 ft 32 kts 255°
2026-04-28 14:12 34.86950 33.61651 16 ft 13 kts 291°
2026-04-28 14:12 34.87032 33.61618 17 ft 12 kts 36°
2026-04-28 14:12 34.87108 33.61710 16 ft 18 kts 45°
2026-04-28 14:13 34.87210 33.61836 14 ft 23 kts 45°
2026-04-28 14:13 34.87334 33.61988 14 ft 26 kts 46°
2026-04-28 14:13 34.87466 33.62148 15 ft 23 kts 45°
2026-04-28 14:13 34.87588 33.62296 15 ft 26 kts 45°
2026-04-28 14:14 34.87714 33.62451 16 ft 25 kts 46°
2026-04-28 14:14 34.87842 33.62607 20 ft 26 kts 45°
2026-04-28 14:14 34.87976 33.62770 25 ft 27 kts 45°
2026-04-28 14:14 34.88038 33.62847 26 ft 0 kts 45°
2026-04-28 14:15 34.88040 33.62849 26 ft 1 kts 45°
2026-04-28 14:15 34.88061 33.62875 27 ft 7 kts 45°
2026-04-28 14:15 34.88114 33.62940 27 ft 13 kts 45°
2026-04-28 14:16 34.88201 33.63046 22 ft 19 kts 45°
2026-04-28 14:16 34.88226 33.63074 21 ft 5 kts 30°
2026-04-28 14:16 34.88296 33.63039 23 ft 13 kts 315°
2026-04-28 14:16 34.88363 33.62956 29 ft 12 kts 314°
2026-04-28 14:17 34.88362 33.62888 31 ft 8 kts 226°
2026-04-28 14:17 34.88337 33.62857 32 ft 0 kts 226°
2026-04-28 14:17 34.88336 33.62857 32 ft 0 kts 227°